Weather History for Columbia / Mount Pleasant, TN

Change the Weather History Date:

Monday, June 24, 2013

  Actual Average (KBNA) Record (KBNA)
Temperature  
Mean Temperature 81 °F 78 °F  
Max Temperature 89 °F 88 °F 102 °F (1952)
Min Temperature 73 °F 68 °F 48 °F (1972)
Degree Days  
Heating Degree Days 0 0  
Month to date heating degree days 0  
Since 1 June heating degree days 0  
Since 1 July heating degree days 3685  
Cooling Degree Days 16 13  
Month to date cooling degree days 245  
Year to date cooling degree days 424  
Since 1 June cooling degree days 245  
Growing Degree Days 31 (Base 50)    
Moisture  
Dew Point 78 °F    
Average Humidity 80    
Maximum Humidity 100    
Minimum Humidity 62    
Precipitation  
Precipitation 0.00 in 0.12 in 1.26 in (1993)
Month to date precipitation 3.38  
Year to date precipitation 24.68  
Snow  
Snow 0.00 in 0.00 in 0.00 in ()
Month to date snowfall 0.0  
Since 1 June snowfall 0.0  
Since 1 July snowfall 6.3  
Snow Depth -    
Sea Level Pressure  
Sea Level Pressure 30.12 in    
Wind  
Wind Speed 3 mph (South)    
Max Wind Speed 17 mph    
Max Gust Speed -    
Visibility 9 miles    
Events      
T = Trace of Precipitation, MM = Missing Value Source: NWS Daily Summary

Daily Weather History Graph

Daily Weather History Graph

Search for Another Location

Airport:

Trip Planner

Search our weather history database for the weather conditions in past years. The results will help you decide how hot, cold, wet, or windy it might be!

Date:

Astronomy

Jun. 24, 2013 Rise Set
Actual Time 5:34 AM CDT 8:08 PM CDT
Civil Twilight 5:04 AM CDT 8:38 PM CDT
Nautical Twilight 4:27 AM CDT 9:15 PM CDT
Astronomical Twilight 3:45 AM CDT 9:56 PM CDT
Moon 9:14 PM CDT (6/24) 6:58 AM CDT (6/24)
Length of Visible Light 15h 33m
Length of Day
14h 33m
Full, 98% of the Moon is Illuminated
Jun 24
Full
Jun 29
Last Quarter
Jul 8
New
Jul 15
First Quarter
Jul 22
Full

Hourly Weather History & Observations

Time (CDT) Temp. Heat Index Dew Point Humidity Pressure Visibility Wind Dir Wind Speed Gust Speed Precip Events Conditions
12:35 AM - - - N/A% 30.12 in 10.0 mi Calm Calm - N/A   Clear
12:55 AM - - - N/A% 30.11 in 8.0 mi Calm Calm - N/A   Clear
1:15 AM - - - N/A% 30.11 in 10.0 mi Calm Calm - N/A   Clear
1:35 AM - - - N/A% 30.11 in 10.0 mi Calm Calm - N/A   Clear
1:55 AM - - - N/A% 30.11 in 10.0 mi Calm Calm - N/A   Clear
2:15 AM - - - N/A% 30.10 in 10.0 mi Calm Calm - N/A   Clear
2:35 AM - - - N/A% 30.10 in 10.0 mi Calm Calm - N/A   Clear
2:55 AM - - - N/A% 30.11 in 10.0 mi South 3.5 mph - N/A   Clear
3:15 AM - - - N/A% 30.11 in 10.0 mi Calm Calm - N/A   Clear
3:35 AM - - - N/A% 30.11 in 9.0 mi Calm Calm - N/A   Clear
3:55 AM - - - N/A% 30.12 in 8.0 mi Calm Calm - N/A   Unknown
4:15 AM - - - N/A% 30.12 in 5.0 mi Calm Calm - N/A   Unknown
4:35 AM - - - N/A% 30.12 in 10.0 mi Calm Calm - N/A   Clear
4:55 AM - - - N/A% 30.12 in 9.0 mi Calm Calm - N/A   Clear
5:15 AM - - - N/A% 30.13 in 10.0 mi Calm Calm - N/A   Clear
5:35 AM - - - N/A% 30.13 in 9.0 mi Calm Calm - N/A   Clear
5:55 AM - - - N/A% 30.14 in 10.0 mi Calm Calm - N/A   Clear
6:15 AM - - - N/A% 30.14 in 7.0 mi Calm Calm - N/A   Clear
6:35 AM - - - N/A% 30.14 in 10.0 mi SSE 3.5 mph - N/A   Clear
6:55 AM - - - N/A% 30.15 in 10.0 mi Calm Calm - N/A   Clear
7:15 AM - - - N/A% 30.15 in 10.0 mi Calm Calm - N/A   Clear
7:35 AM - - - N/A% 30.15 in 8.0 mi Calm Calm - N/A   Clear
7:55 AM - - - N/A% 30.16 in 8.0 mi Calm Calm - N/A   Clear
8:15 AM 80.6 °F 89.3 °F 80.6 °F 100% 30.17 in 6.0 mi SSW 6.9 mph - N/A   Clear
8:35 AM 82.4 °F 96.1 °F 82.4 °F 100% 30.17 in 10.0 mi SW 6.9 mph - N/A   Clear
8:55 AM 82.4 °F 96.1 °F 82.4 °F 100% 30.18 in 10.0 mi SW 6.9 mph - N/A   Clear
9:15 AM 82.4 °F 96.1 °F 82.4 °F 100% 30.18 in 10.0 mi SW 10.4 mph - N/A   Clear
9:35 AM 84.2 °F 103.5 °F 84.2 °F 100% 30.18 in 10.0 mi SSW 9.2 mph - N/A   Clear
9:55 AM 84.2 °F 100.6 °F 82.4 °F 94% 30.18 in 10.0 mi SSW 8.1 mph - N/A   Partly Cloudy
10:15 AM 87.8 °F 104.9 °F 80.6 °F 79% 30.18 in 10.0 mi SSW 10.4 mph - N/A   Mostly Cloudy
10:35 AM 86.0 °F 99.3 °F 78.8 °F 79% 30.18 in 10.0 mi SW 3.5 mph - N/A   Mostly Cloudy
10:55 AM 87.8 °F 104.9 °F 80.6 °F 79% 30.17 in 10.0 mi SSW 6.9 mph - N/A   Scattered Clouds
11:15 AM 87.8 °F 99.7 °F 77.0 °F 70% 30.17 in 10.0 mi SW 4.6 mph - N/A   Scattered Clouds
11:35 AM 87.8 °F 99.7 °F 77.0 °F 70% 30.16 in 10.0 mi WSW 4.6 mph - N/A   Mostly Cloudy
11:55 AM 89.6 °F 99.8 °F 75.2 °F 62% 30.15 in 10.0 mi South 5.8 mph - N/A   Partly Cloudy
12:15 PM 87.8 °F 97.6 °F 75.2 °F 66% 30.15 in 10.0 mi South 5.8 mph - N/A   Mostly Cloudy
12:35 PM 87.8 °F 97.6 °F 75.2 °F 66% 30.14 in 10.0 mi South 8.1 mph - N/A   Mostly Cloudy
12:55 PM 87.8 °F 97.6 °F 75.2 °F 66% 30.13 in 10.0 mi South 6.9 mph - N/A   Scattered Clouds
1:15 PM 89.6 °F 104.7 °F 78.8 °F 70% 30.12 in 10.0 mi SSE 6.9 mph - N/A   Scattered Clouds
1:35 PM 89.6 °F 104.7 °F 78.8 °F 70% 30.11 in 10.0 mi South 10.4 mph - N/A   Partly Cloudy
1:55 PM 89.6 °F 99.8 °F 75.2 °F 62% 30.10 in 10.0 mi South 10.4 mph - N/A   Clear
2:15 PM 87.8 °F 97.6 °F 75.2 °F 66% 30.11 in 10.0 mi SSE 12.7 mph - N/A   Clear
2:35 PM 84.2 °F 92.3 °F 75.2 °F 74% 30.11 in 10.0 mi SSE 11.5 mph - N/A   Partly Cloudy
2:55 PM 87.8 °F 95.6 °F 73.4 °F 62% 30.10 in 10.0 mi SE 9.2 mph - N/A   Clear
3:15 PM 87.8 °F 102.5 °F 78.8 °F 75% 30.09 in 10.0 mi SSE 8.1 mph - N/A   Clear
3:35 PM 87.8 °F 99.7 °F 77.0 °F 70% 30.08 in 10.0 mi SSE 8.1 mph - N/A   Clear
3:55 PM 89.6 °F 104.7 °F 78.8 °F 70% 30.08 in 9.0 mi South 10.4 mph - N/A   Clear
4:15 PM 80.6 °F 89.3 °F 80.6 °F 100% 30.10 in - SW 11.5 mph - N/A   Unknown
4:35 PM 73.4 °F - 73.4 °F 100% 30.09 in 1.2 mi ENE 16.1 mph - N/A   Overcast
4:55 PM 73.4 °F - 73.4 °F 100% 30.13 in 1.0 mi North 17.3 mph - N/A   Overcast
5:15 PM - - - N/A% 30.11 in - SSW 9.2 mph - N/A   Overcast
5:35 PM - - - N/A% 30.11 in 4.0 mi South 6.9 mph - N/A   Mostly Cloudy
5:55 PM - - - N/A% 30.09 in 10.0 mi SSE 3.5 mph - N/A   Unknown
6:15 PM - - - N/A% 30.09 in 10.0 mi North 4.6 mph - N/A   Mostly Cloudy
6:35 PM - - - N/A% 30.09 in 10.0 mi Calm Calm - N/A   Mostly Cloudy
6:55 PM - - - N/A% 30.08 in 10.0 mi Calm Calm - N/A   Scattered Clouds
7:15 PM - - - N/A% 30.08 in 9.0 mi Calm Calm - N/A   Clear
7:35 PM - - - N/A% 30.08 in 10.0 mi Calm Calm - N/A   Clear
7:55 PM - - - N/A% 30.08 in 7.0 mi Calm Calm - N/A   Clear
8:15 PM - - - N/A% 30.08 in 7.0 mi Calm Calm - N/A   Clear
8:35 PM - - - N/A% 30.08 in 6.0 mi Calm Calm - N/A   Clear
8:55 PM - - - N/A% 30.08 in 3.0 mi SSE 3.5 mph - N/A   Clear
9:15 PM - - - N/A% 30.09 in 4.0 mi Calm Calm - N/A   Clear
9:35 PM - - - N/A% 30.10 in 9.0 mi Calm Calm - N/A   Clear
9:55 PM - - - N/A% 30.10 in 10.0 mi Calm Calm - N/A   Clear
10:15 PM - - - N/A% 30.11 in 10.0 mi South 3.5 mph - N/A   Clear
10:35 PM - - - N/A% 30.11 in 10.0 mi Calm Calm - N/A   Clear
10:55 PM - - - N/A% 30.11 in 8.0 mi Calm Calm - N/A   Clear
11:15 PM - - - N/A% 30.11 in 7.0 mi Calm Calm - N/A   Clear
11:35 PM - - - N/A% 30.10 in 5.0 mi Calm Calm - N/A   Clear
11:55 PM - - - N/A% 30.11 in 5.0 mi Calm Calm - N/A   Clear